Year,Month,Day,Hour,Minute,Value (Times are PST for barometer in hPa)
2020,11,13,00,00,996.21
2020,11,13,00,01,996.17
2020,11,13,00,02,996.14
2020,11,13,00,03,996.14
2020,11,13,00,04,996.07
2020,11,13,00,05,996.11
2020,11,13,00,06,996.11
2020,11,13,00,07,996.07
2020,11,13,00,08,996.07
2020,11,13,00,09,995.87
2020,11,13,00,10,995.90
2020,11,13,00,11,995.87
2020,11,13,00,12,995.80
2020,11,13,00,13,995.73
2020,11,13,00,14,995.63
2020,11,13,00,15,995.63
2020,11,13,00,16,995.67
2020,11,13,00,17,995.56
2020,11,13,00,18,995.56
2020,11,13,00,19,995.40
2020,11,13,00,20,995.34
2020,11,13,00,21,995.43
2020,11,13,00,22,995.36
2020,11,13,00,23,995.23
2020,11,13,00,24,995.22
2020,11,13,00,25,995.12
2020,11,13,00,26,995.06
2020,11,13,00,27,994.99
2020,11,13,00,28,994.92
2020,11,13,00,29,994.82
2020,11,13,00,30,994.85
2020,11,13,00,31,994.82
2020,11,13,00,32,994.79
2020,11,13,00,33,994.79
2020,11,13,00,34,994.84
2020,11,13,00,35,994.72
2020,11,13,00,36,994.68
2020,11,13,00,37,994.71
2020,11,13,00,38,994.55
2020,11,13,00,39,994.48
2020,11,13,00,40,994.45
2020,11,13,00,41,994.44
2020,11,13,00,42,994.28
2020,11,13,00,43,994.28
2020,11,13,00,44,994.14
2020,11,13,00,45,994.18
2020,11,13,00,46,994.24
2020,11,13,00,47,994.18
2020,11,13,00,48,994.24
2020,11,13,00,49,994.17
2020,11,13,00,50,994.07
2020,11,13,00,51,994.07
2020,11,13,00,52,994.07
2020,11,13,00,53,994.04
2020,11,13,00,54,994.01
2020,11,13,00,55,994.01
2020,11,13,00,56,993.97
2020,11,13,00,57,993.87
2020,11,13,00,58,993.94
2020,11,13,00,59,993.87
2020,11,13,01,00,993.84
2020,11,13,01,01,993.80
2020,11,13,01,02,993.74
2020,11,13,01,03,993.74
2020,11,13,01,04,993.74
2020,11,13,01,05,993.74
2020,11,13,01,06,993.60
2020,11,13,01,07,993.60
2020,11,13,01,08,993.60
2020,11,13,01,09,993.53
2020,11,13,01,10,993.47
2020,11,13,01,11,993.36
2020,11,13,01,12,993.40
2020,11,13,01,13,993.36
2020,11,13,01,14,993.30
2020,11,13,01,15,993.16
2020,11,13,01,16,993.16
2020,11,13,01,17,993.13
2020,11,13,01,18,993.06
2020,11,13,01,19,993.06
2020,11,13,01,20,993.03
2020,11,13,01,21,992.99
2020,11,13,01,22,992.96
2020,11,13,01,23,992.89
2020,11,13,01,24,992.88
2020,11,13,01,25,992.75
2020,11,13,01,26,992.72
2020,11,13,01,27,992.72
2020,11,13,01,28,992.69
2020,11,13,01,29,992.65
2020,11,13,01,30,992.65
2020,11,13,01,31,992.62
2020,11,13,01,32,992.52
2020,11,13,01,33,992.42
2020,11,13,01,34,992.52
2020,11,13,01,35,992.31
2020,11,13,01,36,992.25
2020,11,13,01,37,992.18
2020,11,13,01,38,992.18
2020,11,13,01,39,992.18
2020,11,13,01,40,992.14
2020,11,13,01,41,992.08
2020,11,13,01,42,992.04
2020,11,13,01,43,991.98
2020,11,13,01,44,991.94
2020,11,13,01,45,992.01
2020,11,13,01,46,991.74
2020,11,13,01,47,991.81
2020,11,13,01,48,991.73
2020,11,13,01,49,991.64
2020,11,13,01,50,991.57
2020,11,13,01,51,991.57
2020,11,13,01,52,991.50
2020,11,13,01,53,991.53
2020,11,13,01,54,991.43
2020,11,13,01,55,991.50
2020,11,13,01,56,991.50
2020,11,13,01,57,991.40
2020,11,13,01,58,991.33
2020,11,13,01,59,991.37
2020,11,13,02,00,991.26
2020,11,13,02,01,991.20
2020,11,13,02,02,991.16
2020,11,13,02,03,991.15
2020,11,13,02,04,990.96
2020,11,13,02,05,990.93
2020,11,13,02,06,991.03
2020,11,13,02,07,991.03
2020,11,13,02,08,990.95
2020,11,13,02,09,990.82
2020,11,13,02,10,990.76
2020,11,13,02,11,990.76
2020,11,13,02,12,990.72
2020,11,13,02,13,990.72
2020,11,13,02,14,990.71
2020,11,13,02,15,990.59
2020,11,13,02,16,990.62
2020,11,13,02,17,990.59
2020,11,13,02,18,990.49
2020,11,13,02,19,990.52
2020,11,13,02,20,990.52
2020,11,13,02,21,990.42
2020,11,13,02,22,990.42
2020,11,13,02,23,990.38
2020,11,13,02,24,990.32
2020,11,13,02,25,990.25
2020,11,13,02,26,990.21
2020,11,13,02,27,990.10
2020,11,13,02,28,990.01
2020,11,13,02,29,989.97
2020,11,13,02,30,989.84
2020,11,13,02,31,989.84
2020,11,13,02,32,989.88
2020,11,13,02,33,989.81
2020,11,13,02,34,989.91
2020,11,13,02,35,989.88
2020,11,13,02,36,989.84
2020,11,13,02,37,989.71
2020,11,13,02,38,989.88
2020,11,13,02,39,989.74
2020,11,13,02,40,989.71
2020,11,13,02,41,989.71
2020,11,13,02,42,989.71
2020,11,13,02,43,989.64
2020,11,13,02,44,989.64
2020,11,13,02,45,989.64
2020,11,13,02,46,989.60
2020,11,13,02,47,989.64
2020,11,13,02,48,989.54
2020,11,13,02,49,989.56
2020,11,13,02,50,989.44
2020,11,13,02,51,989.47
2020,11,13,02,52,989.37
2020,11,13,02,53,989.33
2020,11,13,02,54,989.27
2020,11,13,02,55,989.13
2020,11,13,02,56,989.19
2020,11,13,02,57,989.03
2020,11,13,02,58,988.96
2020,11,13,02,59,988.86
2020,11,13,03,00,988.86
2020,11,13,03,01,988.86
2020,11,13,03,02,988.86
2020,11,13,03,03,988.79
2020,11,13,03,04,988.72
2020,11,13,03,05,988.72
2020,11,13,03,06,988.66
2020,11,13,03,07,988.62
2020,11,13,03,08,988.72
2020,11,13,03,09,988.55
2020,11,13,03,10,988.62
2020,11,13,03,11,988.62
2020,11,13,03,12,988.45
2020,11,13,03,13,988.45
2020,11,13,03,14,988.32
2020,11,13,03,15,988.25
2020,11,13,03,16,988.25
2020,11,13,03,17,988.15
2020,11,13,03,18,988.18
2020,11,13,03,19,988.08
2020,11,13,03,20,988.08
2020,11,13,03,21,988.01
2020,11,13,03,22,987.98
2020,11,13,03,23,987.88
2020,11,13,03,24,987.91
2020,11,13,03,25,988.01
2020,11,13,03,26,987.78
2020,11,13,03,27,987.77
2020,11,13,03,28,987.61
2020,11,13,03,29,987.67
2020,11,13,03,30,987.71
2020,11,13,03,31,987.67
2020,11,13,03,32,987.67
2020,11,13,03,33,987.57
2020,11,13,03,34,987.51
2020,11,13,03,35,987.54
2020,11,13,03,36,987.40
2020,11,13,03,37,987.34
2020,11,13,03,38,987.40
2020,11,13,03,39,987.23
2020,11,13,03,40,987.34
2020,11,13,03,41,987.23
2020,11,13,03,42,987.17
2020,11,13,03,43,987.20
2020,11,13,03,44,987.20
2020,11,13,03,45,987.06
2020,11,13,03,46,987.13
2020,11,13,03,47,987.03
2020,11,13,03,48,986.93
2020,11,13,03,49,986.86
2020,11,13,03,50,986.93
2020,11,13,03,51,986.96
2020,11,13,03,52,986.93
2020,11,13,03,53,986.86
2020,11,13,03,54,986.86
2020,11,13,03,55,986.90
2020,11,13,03,56,986.96
2020,11,13,03,57,986.90
2020,11,13,03,58,986.83
2020,11,13,03,59,986.79
2020,11,13,04,00,986.73
2020,11,13,04,01,986.79
2020,11,13,04,02,986.73
2020,11,13,04,03,986.69
2020,11,13,04,04,986.59
2020,11,13,04,05,986.49
2020,11,13,04,06,986.46
2020,11,13,04,07,986.46
2020,11,13,04,08,986.42
2020,11,13,04,09,986.32
2020,11,13,04,10,986.28
2020,11,13,04,11,986.18
2020,11,13,04,12,986.15
2020,11,13,04,13,986.12
2020,11,13,04,14,986.05
2020,11,13,04,15,986.08
2020,11,13,04,16,986.08
2020,11,13,04,17,986.15
2020,11,13,04,18,986.02
2020,11,13,04,19,985.97
2020,11,13,04,20,985.78
2020,11,13,04,21,985.68
2020,11,13,04,22,985.71
2020,11,13,04,23,985.61
2020,11,13,04,24,985.47
2020,11,13,04,25,985.54
2020,11,13,04,26,985.54
2020,11,13,04,27,985.51
2020,11,13,04,28,985.57
2020,11,13,04,29,985.57
2020,11,13,04,30,985.51
2020,11,13,04,31,985.54
2020,11,13,04,32,985.54
2020,11,13,04,33,985.54
2020,11,13,04,34,985.51
2020,11,13,04,35,985.47
2020,11,13,04,36,985.54
2020,11,13,04,37,985.61
2020,11,13,04,38,985.71
2020,11,13,04,39,985.77
2020,11,13,04,40,985.58
2020,11,13,04,41,985.68
2020,11,13,04,42,985.64
2020,11,13,04,43,985.64
2020,11,13,04,44,985.57
2020,11,13,04,45,985.54
2020,11,13,04,46,985.54
2020,11,13,04,47,985.53
2020,11,13,04,48,985.44
2020,11,13,04,49,985.47
2020,11,13,04,50,985.41
2020,11,13,04,51,985.44
2020,11,13,04,52,985.47
2020,11,13,04,53,985.34
2020,11,13,04,54,985.44
2020,11,13,04,55,985.43
2020,11,13,04,56,985.34
2020,11,13,04,57,985.47
2020,11,13,04,58,985.41
2020,11,13,04,59,985.34
2020,11,13,05,00,985.37
2020,11,13,05,01,985.37
2020,11,13,05,02,985.41
2020,11,13,05,03,985.37
2020,11,13,05,04,985.34
2020,11,13,05,05,985.44
2020,11,13,05,06,985.41
2020,11,13,05,07,985.34
2020,11,13,05,08,985.34
2020,11,13,05,09,985.37
2020,11,13,05,10,985.30
2020,11,13,05,11,985.30
2020,11,13,05,12,985.37
2020,11,13,05,13,985.37
2020,11,13,05,14,985.20
2020,11,13,05,15,985.20
2020,11,13,05,16,985.34
2020,11,13,05,17,985.20
2020,11,13,05,18,985.27
2020,11,13,05,19,985.20
2020,11,13,05,20,985.24
2020,11,13,05,21,985.27
2020,11,13,05,22,985.27
2020,11,13,05,23,985.27
2020,11,13,05,24,985.24
2020,11,13,05,25,985.24
2020,11,13,05,26,985.20
2020,11,13,05,27,985.17
2020,11,13,05,28,985.24
2020,11,13,05,29,985.20
2020,11,13,05,30,985.17
2020,11,13,05,31,985.13
2020,11,13,05,32,985.20
2020,11,13,05,33,985.03
2020,11,13,05,34,985.10
2020,11,13,05,35,985.10
2020,11,13,05,36,985.07
2020,11,13,05,37,984.97
2020,11,13,05,38,985.03
2020,11,13,05,39,985.07
2020,11,13,05,40,985.07
2020,11,13,05,41,984.93
2020,11,13,05,42,984.86
2020,11,13,05,43,984.82
2020,11,13,05,44,984.63
2020,11,13,05,45,984.53
2020,11,13,05,46,984.42
2020,11,13,05,47,984.36
2020,11,13,05,48,984.28
2020,11,13,05,49,984.15
2020,11,13,05,50,984.12
2020,11,13,05,51,983.91
2020,11,13,05,52,983.73
2020,11,13,05,53,983.41
2020,11,13,05,54,983.28
2020,11,13,05,55,983.37
2020,11,13,05,56,983.83
2020,11,13,05,57,984.14
2020,11,13,05,58,983.98
2020,11,13,05,59,983.75
2020,11,13,06,00,983.75
2020,11,13,06,01,984.01
2020,11,13,06,02,984.19
2020,11,13,06,03,984.15
2020,11,13,06,04,984.22
2020,11,13,06,05,984.39
2020,11,13,06,06,984.46
2020,11,13,06,07,984.57
2020,11,13,06,08,984.66
2020,11,13,06,09,984.73
2020,11,13,06,10,984.73
2020,11,13,06,11,984.69
2020,11,13,06,12,984.59
2020,11,13,06,13,984.49
2020,11,13,06,14,984.46
2020,11,13,06,15,984.42
2020,11,13,06,16,984.42
2020,11,13,06,17,984.39
2020,11,13,06,18,984.42
2020,11,13,06,19,984.39
2020,11,13,06,20,984.49
2020,11,13,06,21,984.49
2020,11,13,06,22,984.49
2020,11,13,06,23,984.56
2020,11,13,06,24,984.53
2020,11,13,06,25,984.59
2020,11,13,06,26,984.59
2020,11,13,06,27,984.59
2020,11,13,06,28,984.56
2020,11,13,06,29,984.66
2020,11,13,06,30,984.59
2020,11,13,06,31,984.63
2020,11,13,06,32,984.59
2020,11,13,06,33,984.66
2020,11,13,06,34,984.69
2020,11,13,06,35,984.73
2020,11,13,06,36,984.74
2020,11,13,06,37,984.86
2020,11,13,06,38,984.83
2020,11,13,06,39,984.90
2020,11,13,06,40,984.90
2020,11,13,06,41,984.86
2020,11,13,06,42,984.90
2020,11,13,06,43,984.90
2020,11,13,06,44,984.86
2020,11,13,06,45,984.86
2020,11,13,06,46,984.86
2020,11,13,06,47,984.90
2020,11,13,06,48,984.83
2020,11,13,06,49,984.83
2020,11,13,06,50,984.83
2020,11,13,06,51,984.80
2020,11,13,06,52,984.80
2020,11,13,06,53,984.80
2020,11,13,06,54,984.83
2020,11,13,06,55,984.80
2020,11,13,06,56,984.83
2020,11,13,06,57,984.73
2020,11,13,06,58,984.69
2020,11,13,06,59,984.69
2020,11,13,07,00,984.66
2020,11,13,07,01,984.73
2020,11,13,07,02,984.73
2020,11,13,07,03,984.69
2020,11,13,07,04,984.76
2020,11,13,07,05,984.80
2020,11,13,07,06,984.86
2020,11,13,07,07,984.80
2020,11,13,07,08,984.86
2020,11,13,07,09,984.83
2020,11,13,07,10,984.83
2020,11,13,07,11,984.83
2020,11,13,07,12,984.86
2020,11,13,07,13,984.93
2020,11,13,07,14,985.00
2020,11,13,07,15,985.03
2020,11,13,07,16,985.10
2020,11,13,07,17,985.00
2020,11,13,07,18,985.07
2020,11,13,07,19,985.03
2020,11,13,07,20,985.03
2020,11,13,07,21,985.00
2020,11,13,07,22,985.00
2020,11,13,07,23,984.97
2020,11,13,07,24,985.07
2020,11,13,07,25,984.97
2020,11,13,07,26,985.07
2020,11,13,07,27,985.03
2020,11,13,07,28,985.03
2020,11,13,07,29,985.10
2020,11,13,07,30,985.10
2020,11,13,07,31,985.07
2020,11,13,07,32,985.07
2020,11,13,07,33,985.10
2020,11,13,07,34,985.07
2020,11,13,07,35,985.10
2020,11,13,07,36,985.17
2020,11,13,07,37,985.10
2020,11,13,07,38,985.10
2020,11,13,07,39,985.03
2020,11,13,07,40,985.07
2020,11,13,07,41,985.17
2020,11,13,07,42,985.17
2020,11,13,07,43,985.13
2020,11,13,07,44,985.07
2020,11,13,07,45,985.07
2020,11,13,07,46,985.07
2020,11,13,07,47,985.07
2020,11,13,07,48,985.10
2020,11,13,07,49,985.07
2020,11,13,07,50,985.10
2020,11,13,07,51,985.17
2020,11,13,07,52,985.13
2020,11,13,07,53,985.17
2020,11,13,07,54,985.13
2020,11,13,07,55,985.18
2020,11,13,07,56,985.30
2020,11,13,07,57,985.37
2020,11,13,07,58,985.30
2020,11,13,07,59,985.30
2020,11,13,08,00,985.34
2020,11,13,08,01,985.27
2020,11,13,08,02,985.24
2020,11,13,08,03,985.34
2020,11,13,08,04,985.30
2020,11,13,08,05,985.30
2020,11,13,08,06,985.24
2020,11,13,08,07,985.13
2020,11,13,08,08,985.13
2020,11,13,08,09,985.13
2020,11,13,08,10,985.21
2020,11,13,08,11,985.30
2020,11,13,08,12,985.37
2020,11,13,08,13,985.37
2020,11,13,08,14,985.34
2020,11,13,08,15,985.30
2020,11,13,08,16,985.24
2020,11,13,08,17,985.17
2020,11,13,08,18,985.10
2020,11,13,08,19,984.80
2020,11,13,08,20,984.66
2020,11,13,08,21,984.59
2020,11,13,08,22,984.53
2020,11,13,08,23,984.53
2020,11,13,08,24,984.53
2020,11,13,08,25,984.56
2020,11,13,08,26,984.66
2020,11,13,08,27,984.73
2020,11,13,08,28,984.77
2020,11,13,08,29,984.90
2020,11,13,08,30,984.97
2020,11,13,08,31,985.00
2020,11,13,08,32,985.00
2020,11,13,08,33,985.03
2020,11,13,08,34,985.07
2020,11,13,08,35,985.10
2020,11,13,08,36,985.03
2020,11,13,08,37,985.20
2020,11,13,08,38,985.20
2020,11,13,08,39,985.24
2020,11,13,08,40,985.20
2020,11,13,08,41,985.20
2020,11,13,08,42,985.24
2020,11,13,08,43,985.24
2020,11,13,08,44,985.20
2020,11,13,08,45,985.17
2020,11,13,08,46,985.17
2020,11,13,08,47,985.13
2020,11,13,08,48,985.13
2020,11,13,08,49,985.20
2020,11,13,08,50,985.24
2020,11,13,08,51,985.20
2020,11,13,08,52,985.24
2020,11,13,08,53,985.24
2020,11,13,08,54,985.27
2020,11,13,08,55,985.27
2020,11,13,08,56,985.30
2020,11,13,08,57,985.27
2020,11,13,08,58,985.20
2020,11,13,08,59,985.24
2020,11,13,09,00,985.27
2020,11,13,09,01,985.24
2020,11,13,09,02,985.24
2020,11,13,09,03,985.20
2020,11,13,09,04,985.27
2020,11,13,09,05,985.24
2020,11,13,09,06,985.17
2020,11,13,09,07,985.13
2020,11,13,09,08,985.03
2020,11,13,09,09,985.07
2020,11,13,09,10,984.97
2020,11,13,09,11,984.97
2020,11,13,09,12,984.97
2020,11,13,09,13,984.83
2020,11,13,09,14,984.90
2020,11,13,09,15,984.90
2020,11,13,09,16,984.83
2020,11,13,09,17,984.90
2020,11,13,09,18,984.93
2020,11,13,09,19,985.01
2020,11,13,09,20,985.10
2020,11,13,09,21,985.10
2020,11,13,09,22,985.13
2020,11,13,09,23,985.07
2020,11,13,09,24,985.07
2020,11,13,09,25,985.07
2020,11,13,09,26,985.03
2020,11,13,09,27,985.13
2020,11,13,09,28,985.03
2020,11,13,09,29,985.07
2020,11,13,09,30,985.20
2020,11,13,09,31,985.17
2020,11,13,09,32,985.28
2020,11,13,09,33,985.37
2020,11,13,09,34,985.40
2020,11,13,09,35,985.30
2020,11,13,09,36,985.57
2020,11,13,09,37,985.47
2020,11,13,09,38,985.51
2020,11,13,09,39,985.54
2020,11,13,09,40,985.51
2020,11,13,09,41,985.51
2020,11,13,09,42,985.51
2020,11,13,09,43,985.54
2020,11,13,09,44,985.44
2020,11,13,09,45,985.51
2020,11,13,09,46,985.54
2020,11,13,09,47,985.64
2020,11,13,09,48,985.71
2020,11,13,09,49,985.68
2020,11,13,09,50,985.74
2020,11,13,09,51,985.78
2020,11,13,09,52,985.81
2020,11,13,09,53,985.85
2020,11,13,09,54,985.91
2020,11,13,09,55,985.88
2020,11,13,09,56,985.98
2020,11,13,09,57,986.02
2020,11,13,09,58,986.05
2020,11,13,09,59,986.05
2020,11,13,10,00,986.12
2020,11,13,10,01,986.15
2020,11,13,10,02,986.22
2020,11,13,10,03,986.12
2020,11,13,10,04,986.29
2020,11,13,10,05,986.22
2020,11,13,10,06,986.29
2020,11,13,10,07,986.29
2020,11,13,10,08,986.29
2020,11,13,10,09,986.32
2020,11,13,10,10,986.32
2020,11,13,10,11,986.46
2020,11,13,10,12,986.42
2020,11,13,10,13,986.52
2020,11,13,10,14,986.52
2020,11,13,10,15,986.52
2020,11,13,10,16,986.52
2020,11,13,10,17,986.59
2020,11,13,10,18,986.59
2020,11,13,10,19,986.66
2020,11,13,10,20,986.66
2020,11,13,10,21,986.74
2020,11,13,10,22,986.86
2020,11,13,10,23,986.83
2020,11,13,10,24,986.90
2020,11,13,10,25,986.90
2020,11,13,10,26,986.93
2020,11,13,10,27,987.03
2020,11,13,10,28,987.00
2020,11,13,10,29,987.13
2020,11,13,10,30,987.10
2020,11,13,10,31,987.06
2020,11,13,10,32,987.17
2020,11,13,10,33,987.27
2020,11,13,10,34,987.30
2020,11,13,10,35,987.30
2020,11,13,10,36,987.27
2020,11,13,10,37,987.34
2020,11,13,10,38,987.28
2020,11,13,10,39,987.47
2020,11,13,10,40,987.57
2020,11,13,10,41,987.67
2020,11,13,10,42,987.78
2020,11,13,10,43,987.78
2020,11,13,10,44,987.88
2020,11,13,10,45,987.88
2020,11,13,10,46,987.95
2020,11,13,10,47,988.05
2020,11,13,10,48,988.15
2020,11,13,10,49,988.05
2020,11,13,10,50,988.15
2020,11,13,10,51,988.22
2020,11,13,10,52,988.25
2020,11,13,10,53,988.28
2020,11,13,10,54,988.42
2020,11,13,10,55,988.52
2020,11,13,10,56,988.69
2020,11,13,10,57,988.73
2020,11,13,10,58,988.83
2020,11,13,10,59,988.79
2020,11,13,11,00,988.89
2020,11,13,11,01,989.00
2020,11,13,11,02,989.03
2020,11,13,11,03,989.06
2020,11,13,11,04,989.10
2020,11,13,11,05,989.16
2020,11,13,11,06,989.13
2020,11,13,11,07,989.16
2020,11,13,11,08,989.13
2020,11,13,11,09,989.21
2020,11,13,11,10,989.30
2020,11,13,11,11,989.30
2020,11,13,11,12,989.33
2020,11,13,11,13,989.40
2020,11,13,11,14,989.33
2020,11,13,11,15,989.47
2020,11,13,11,16,989.44
2020,11,13,11,17,989.47
2020,11,13,11,18,989.44
2020,11,13,11,19,989.47
2020,11,13,11,20,989.44
2020,11,13,11,21,989.54
2020,11,13,11,22,989.57
2020,11,13,11,23,989.60
2020,11,13,11,24,989.60
2020,11,13,11,25,989.64
2020,11,13,11,26,989.71
2020,11,13,11,27,989.67
2020,11,13,11,28,989.74
2020,11,13,11,29,989.77
2020,11,13,11,30,989.81
2020,11,13,11,31,989.81
2020,11,13,11,32,989.84
2020,11,13,11,33,989.88
2020,11,13,11,34,989.94
2020,11,13,11,35,990.01
2020,11,13,11,36,990.01
2020,11,13,11,37,990.04
2020,11,13,11,38,990.11
2020,11,13,11,39,990.14
2020,11,13,11,40,990.04
2020,11,13,11,41,990.21
2020,11,13,11,42,990.16
2020,11,13,11,43,990.28
2020,11,13,11,44,990.28
2020,11,13,11,45,990.32
2020,11,13,11,46,990.32
2020,11,13,11,47,990.38
2020,11,13,11,48,990.35
2020,11,13,11,49,990.38
2020,11,13,11,50,990.45
2020,11,13,11,51,990.38
2020,11,13,11,52,990.49
2020,11,13,11,53,990.49
2020,11,13,11,54,990.45
2020,11,13,11,55,990.55
2020,11,13,11,56,990.59
2020,11,13,11,57,990.62
2020,11,13,11,58,990.59
2020,11,13,11,59,990.65
2020,11,13,12,00,990.62
2020,11,13,12,01,990.69
2020,11,13,12,02,990.72
2020,11,13,12,03,990.72
2020,11,13,12,04,990.65
2020,11,13,12,05,990.65
2020,11,13,12,06,990.69
2020,11,13,12,07,990.69
2020,11,13,12,08,990.76
2020,11,13,12,09,990.72
2020,11,13,12,10,990.72
2020,11,13,12,11,990.76
2020,11,13,12,12,990.79
2020,11,13,12,13,990.79
2020,11,13,12,14,990.82
2020,11,13,12,15,990.82
2020,11,13,12,16,990.89
2020,11,13,12,17,990.86
2020,11,13,12,18,990.99
2020,11,13,12,19,990.96
2020,11,13,12,20,990.96
2020,11,13,12,21,990.97
2020,11,13,12,22,991.07
2020,11,13,12,23,991.16
2020,11,13,12,24,991.13
2020,11,13,12,25,991.20
2020,11,13,12,26,991.20
2020,11,13,12,27,991.16
2020,11,13,12,28,991.23
2020,11,13,12,29,991.23
2020,11,13,12,30,991.30
2020,11,13,12,31,991.26
2020,11,13,12,32,991.23
2020,11,13,12,33,991.33
2020,11,13,12,34,991.37
2020,11,13,12,35,991.40
2020,11,13,12,36,991.43
2020,11,13,12,37,991.40
2020,11,13,12,38,991.40
2020,11,13,12,39,991.43
2020,11,13,12,40,991.53
2020,11,13,12,41,991.50
2020,11,13,12,42,991.50
2020,11,13,12,43,991.50
2020,11,13,12,44,991.53
2020,11,13,12,45,991.53
2020,11,13,12,46,991.57
2020,11,13,12,47,991.64
2020,11,13,12,48,991.64
2020,11,13,12,49,991.74
2020,11,13,12,50,991.81
2020,11,13,12,51,991.81
2020,11,13,12,52,991.81
2020,11,13,12,53,991.77
2020,11,13,12,54,991.81
2020,11,13,12,55,991.91
2020,11,13,12,56,991.87
2020,11,13,12,57,991.87
2020,11,13,12,58,991.94
2020,11,13,12,59,991.94
2020,11,13,13,00,992.01
2020,11,13,13,01,992.01
2020,11,13,13,02,992.01
2020,11,13,13,03,992.04
2020,11,13,13,04,992.01
2020,11,13,13,05,992.04
2020,11,13,13,06,992.14
2020,11,13,13,07,992.11
2020,11,13,13,08,992.14
2020,11,13,13,09,992.26
2020,11,13,13,10,992.38
2020,11,13,13,11,992.35
2020,11,13,13,12,992.38
2020,11,13,13,13,992.42
2020,11,13,13,14,992.32
2020,11,13,13,15,992.48
2020,11,13,13,16,992.45
2020,11,13,13,17,992.48
2020,11,13,13,18,992.52
2020,11,13,13,19,992.48
2020,11,13,13,20,992.55
2020,11,13,13,21,992.58
2020,11,13,13,22,992.62
2020,11,13,13,23,992.55
2020,11,13,13,24,992.55
2020,11,13,13,25,992.55
2020,11,13,13,26,992.58
2020,11,13,13,27,992.55
2020,11,13,13,28,992.62
2020,11,13,13,29,992.65
2020,11,13,13,30,992.69
2020,11,13,13,31,992.65
2020,11,13,13,32,992.69
2020,11,13,13,33,992.69
2020,11,13,13,34,992.75
2020,11,13,13,35,992.72
2020,11,13,13,36,992.82
2020,11,13,13,37,992.86
2020,11,13,13,38,992.89
2020,11,13,13,39,992.92
2020,11,13,13,40,992.99
2020,11,13,13,41,992.99
2020,11,13,13,42,992.97
2020,11,13,13,43,993.16
2020,11,13,13,44,993.13
2020,11,13,13,45,993.16
2020,11,13,13,46,993.23
2020,11,13,13,47,993.16
2020,11,13,13,48,993.19
2020,11,13,13,49,993.16
2020,11,13,13,50,993.26
2020,11,13,13,51,993.26
2020,11,13,13,52,993.33
2020,11,13,13,53,993.30
2020,11,13,13,54,993.30
2020,11,13,13,55,993.33
2020,11,13,13,56,993.33
2020,11,13,13,57,993.36
2020,11,13,13,58,993.36
2020,11,13,13,59,993.40
2020,11,13,14,00,993.47
2020,11,13,14,01,993.43
2020,11,13,14,02,993.43
2020,11,13,14,03,993.47
2020,11,13,14,04,993.50
2020,11,13,14,05,993.53
2020,11,13,14,06,993.60
2020,11,13,14,07,993.67
2020,11,13,14,08,993.63
2020,11,13,14,09,993.67
2020,11,13,14,10,993.67
2020,11,13,14,11,993.84
2020,11,13,14,12,993.84
2020,11,13,14,13,993.78
2020,11,13,14,14,993.87
2020,11,13,14,15,993.84
2020,11,13,14,16,993.91
2020,11,13,14,17,993.87
2020,11,13,14,18,993.97
2020,11,13,14,19,993.91
2020,11,13,14,20,993.97
2020,11,13,14,21,993.97
2020,11,13,14,22,993.94
2020,11,13,14,23,993.97
2020,11,13,14,24,993.97
2020,11,13,14,25,994.07
2020,11,13,14,26,994.18
2020,11,13,14,27,994.18
2020,11,13,14,28,994.24
2020,11,13,14,29,994.31
2020,11,13,14,30,994.35
2020,11,13,14,31,994.41
2020,11,13,14,32,994.45
2020,11,13,14,33,994.45
2020,11,13,14,34,994.41
2020,11,13,14,35,994.48
2020,11,13,14,36,994.52
2020,11,13,14,37,994.58
2020,11,13,14,38,994.62
2020,11,13,14,39,994.58
2020,11,13,14,40,994.65
2020,11,13,14,41,994.68
2020,11,13,14,42,994.72
2020,11,13,14,43,994.68
2020,11,13,14,44,994.75
2020,11,13,14,45,994.79
2020,11,13,14,46,994.85
2020,11,13,14,47,994.85
2020,11,13,14,48,994.85
2020,11,13,14,49,994.82
2020,11,13,14,50,994.82
2020,11,13,14,51,994.79
2020,11,13,14,52,994.85
2020,11,13,14,53,994.89
2020,11,13,14,54,994.89
2020,11,13,14,55,994.92
2020,11,13,14,56,994.92
2020,11,13,14,57,994.96
2020,11,13,14,58,994.92
2020,11,13,14,59,994.92
2020,11,13,15,00,994.99
2020,11,13,15,01,995.06
2020,11,13,15,02,995.12
2020,11,13,15,03,995.12
2020,11,13,15,04,995.16
2020,11,13,15,05,995.16
2020,11,13,15,06,995.16
2020,11,13,15,07,995.12
2020,11,13,15,08,995.09
2020,11,13,15,09,995.12
2020,11,13,15,10,995.16
2020,11,13,15,11,995.33
2020,11,13,15,12,995.33
2020,11,13,15,13,995.40
2020,11,13,15,14,995.36
2020,11,13,15,15,995.40
2020,11,13,15,16,995.36
2020,11,13,15,17,995.40
2020,11,13,15,18,995.46
2020,11,13,15,19,995.46
2020,11,13,15,20,995.46
2020,11,13,15,21,995.56
2020,11,13,15,22,995.59
2020,11,13,15,23,995.50
2020,11,13,15,24,995.60
2020,11,13,15,25,995.56
2020,11,13,15,26,995.60
2020,11,13,15,27,995.60
2020,11,13,15,28,995.67
2020,11,13,15,29,995.67
2020,11,13,15,30,995.70
2020,11,13,15,31,995.73
2020,11,13,15,32,995.73
2020,11,13,15,33,995.80
2020,11,13,15,34,995.77
2020,11,13,15,35,995.80
2020,11,13,15,36,995.77
2020,11,13,15,37,995.80
2020,11,13,15,38,995.80
2020,11,13,15,39,995.70
2020,11,13,15,40,995.77
2020,11,13,15,41,995.84
2020,11,13,15,42,995.80
2020,11,13,15,43,995.77
2020,11,13,15,44,995.87
2020,11,13,15,45,995.90
2020,11,13,15,46,996.01
2020,11,13,15,47,995.97
2020,11,13,15,48,996.07
2020,11,13,15,49,996.07
2020,11,13,15,50,996.11
2020,11,13,15,51,996.11
2020,11,13,15,52,996.24
2020,11,13,15,53,996.28
2020,11,13,15,54,996.28
2020,11,13,15,55,996.38
2020,11,13,15,56,996.41
2020,11,13,15,57,996.38
2020,11,13,15,58,996.46
2020,11,13,15,59,996.55
2020,11,13,16,00,996.58
2020,11,13,16,01,996.55
2020,11,13,16,02,996.58
2020,11,13,16,03,996.61
2020,11,13,16,04,996.61
2020,11,13,16,05,996.55
2020,11,13,16,06,996.61
2020,11,13,16,07,996.65
2020,11,13,16,08,996.65
2020,11,13,16,09,996.72
2020,11,13,16,10,996.72
2020,11,13,16,11,996.82
2020,11,13,16,12,996.82
2020,11,13,16,13,996.78
2020,11,13,16,14,996.85
2020,11,13,16,15,996.85
2020,11,13,16,16,996.95
2020,11,13,16,17,996.99
2020,11,13,16,18,996.95
2020,11,13,16,19,996.99
2020,11,13,16,20,996.95
2020,11,13,16,21,996.99
2020,11,13,16,22,996.95
2020,11,13,16,23,997.02
2020,11,13,16,24,997.00
2020,11,13,16,25,997.12
2020,11,13,16,26,997.16
2020,11,13,16,27,997.22
2020,11,13,16,28,997.26
2020,11,13,16,29,997.26
2020,11,13,16,30,997.36
2020,11,13,16,31,997.29
2020,11,13,16,32,997.36
2020,11,13,16,33,997.43
2020,11,13,16,34,997.43
2020,11,13,16,35,997.46
2020,11,13,16,36,997.46